星链-5703 (STARLINK-5703 )

导读 | 豆包AI

STARLINK-5703是美国SpaceX星链星座的卫星之一,于2023年2月12日发射升空。星链计划旨在构建全球卫星互联网星座,为全球提供低延迟宽带互联网服务,该卫星已在轨运行超过三年,是星链星座部署过程中的一颗组网卫星,助力星链完成全球覆盖的组网目标。

Basic Information
目录编号:
55593
目录名称:
STARLINK-5703
国际标识:
2023-020AA
轨道中心:
EARTH
卫星名称:
星链-5703
卫星全名:
星链-5703 (STARLINK-5703 )
卫星状态:
在轨 (已飞行1173 天)
发射日期:
2023-02-12 UTC
国别 :
美国 (US)
星等 :
--
Orbit Information
数据来源 国际轨道数据 AOE轨道数据
星历时间 2026-04-30T12:36:59+0800
9小时前
查看轨道信息
2026-04-28T23:00:00+0800
1天前
查看轨道信息
半长轴 6861.173km 6861.179km
偏心率 0.0001269 0.0001454
轨道倾角 43.005° 43.004°
近地点辐角 277.759° 235.945°
升交点赤经 73.986° 82.835°
平近点角 82.312° 134.666°
近地点 482.165km 482.044km
远地点 483.907km 484.04km
周期 94.266分钟 94.267分钟
每日圈数 15.275844 15.275827
Detailed Information
固有亮度:
5
最大亮度:
2.5
卫星平台:
Starlink v1.5
覆盖范围:
全球
运营商:
太空探索技术公司
运营商所在国:
美国
制造商(研发单位):
太空探索技术公司
制造商所在国:
美国
使用方式:
暂无
Satellite Introduction
星链(Starlink)计划是由太空探索技术公司(SpaceX)提出的一个巨型低轨卫星互联网星座项目,计划在2019年至2024年间在太空搭建由约1.2万颗卫星组成的“星链”网络,其中1584颗将部署在地球上空550千米处的近地轨道,并从2020年开始工作。该卫星仍在工作。
2D Orbit Map
3D Orbit Map
Orbit Altitude Analysis Chart
Orbit Inclination Analysis Chart
Orbit Comprehensive Analysis Chart
View Comprehensive Chart